091  
ASUS44 KEWX 231110  
RWREWX  
SOUTH TEXAS REGIONAL WEATHER ROUNDUP  
NATIONAL WEATHER SERVICE AUSTIN/SAN ANTONIO TX  
600 AM CDT SAT OCT 23 2021  
 
NOTE: "FAIR" INDICATED FEW OR NO CLOUDS BELOW 12,000 FEET WITH NO  
SIGNIFICANT WEATHER AND/OR S TO VISIBILITY
.  
 
* - THESE STATIONS ARE NOT NWS OR FAA STATIONS...AND ARE NOT SUBJECT  
TO NWS AND FAA QUALITY CONTROL.
 
 
TXZ171-172-183>190-231200-  
TEXAS HILL COUNTRY AND EDWARDS PLATEAU  
 
CITY SKY/WX TMP DP RH WIND PRES REMARKS
 
JUNCTION CLOUDY 69 62 78 S8 29.93F  
*LLANO CLOUDY 61 59 94 CALM 29.92S  
BURNET CLOUDY 69 67 93 S8 29.94F  
*HORSESHOE BAY CLEAR 69 66 93 S5 29.93S  
*LAGO VISTA CLOUDY 69 66 91 S6 29.94F  
*KERRVILLE CLOUDY 65 62 90 SE5 29.95S  
*FREDERICKSBRG MOCLDY 64 62 92 SW3 29.95S  
*ROCKSPRINGS MOCLDY 64 63 94 S12G18 30.00S  
*BOERNE CLOUDY 66 66 100 CALM 29.94S  
*CASTROVILLE CLOUDY 70 68 94 CALM 29.93F  
HONDO CLOUDY 68 64 87 N3 29.92F  
*UVALDE MOCLDY 64 64 100 E5 29.94S  
DEL RIO CLEAR 70 65 84 E10 29.88S  
*LAUGHLIN AFB CLEAR 67 64 91 E10 29.89F  
*SPOFFORD CLEAR 66 65 97 E7 29.84F  
CARRIZO SPRGS CLEAR 61 61 100 CALM 29.89S  

 
 
TXZ173-191>194-202-209-217>225-228-231200-  
CENTRAL AND SOUTH CENTRAL TEXAS  
 
CITY SKY/WX TMP DP RH WIND PRES REMARKS
 
GEORGETOWN CLOUDY 72 68 87 S9 29.94S  
*TAYLOR CLOUDY 72 70 95 S5 29.92F  
AUSTIN/BERGSTM CLOUDY 72 70 93 S6 29.92S  
AUSTIN/MABRY CLOUDY 72 68 87 VRB5 29.93S  
*PFLUGERVILLE N/A 72 72 100 SW6 29.91F FOG  
SAN MARCOS CLOUDY 71 71 100 S3 29.93F  
NEW BRAUNFELS CLOUDY 71 70 96 S3 29.90F  
*RANDOLPH AFB CLOUDY 71 71 99 S6 29.90S  
*SEGUIN CLOUDY 70 70 99 CALM 29.95F  
SAN ANTONIO CLOUDY 69 68 96 E3 29.92F  
STINSON FIELD FOG 73 72 96 SE3 29.90S VSB 1/2  
*KELLY FIELD CLOUDY 69 67 93 CALM 29.90S  
*PLEASANTON FOG 71 71 99 CALM 29.91S VSB 1/4  
*KENEDY FOG 73 72 97 SE3 29.92R VSB 1/2  
*LA GRANGE CLOUDY 75 75 100 S5 29.90S  
*GIDDINGS CLOUDY 73 72 96 S3 29.93S  
*GONZALES CLOUDY 74 74 100 CALM 29.91S FOG  

 
 
TXZ163>164-176>182-195>201-210>213-226-227-235-231200-  
SOUTHEAST TEXAS  
 
CITY SKY/WX TMP DP RH WIND PRES REMARKS
 
COLLEGE STN CLOUDY 74 72 93 S3 29.92S  
*BRYAN CLOUDY 74 74 100 S6 29.94S  
*CALDWELL CLOUDY 74 72 93 S7 29.93S  
*CROCKETT N/A 63 64 100 CALM 29.94S  
*BRENHAM CLOUDY 75 73 94 S6 29.93S  
HUNTSVILLE MOCLDY 73 69 87 S3 29.93S  
CONROE FOG 63 63 100 CALM 29.94S VSB 3/4  
HOUSTON BUSH PTCLDY 70 68 93 CALM 29.92F FOG  
HOUSTON HOBBY PTCLDY 74 71 91 CALM 29.92S FOG  
*HOUSTON SW AP FOG 69 67 95 CALM 29.94R VSB 1/4  
PEARLAND MOCLDY 70 69 97 CALM 29.94R FOG  
HOUSTON HOOKS FOG 69 68 96 CALM 29.92F VSB 1/4  
ELLINGTON FLD PTCLDY 70 70 100 CALM 29.92S  
SUGAR LAND PTCLDY 71 68 90 CALM 29.92S FOG  
*HOUSTON EXEC FOG 70 70 100 CALM 29.94R VSB<1/4  
*CLEVELAND MUN FOG 69 69 100 CALM 29.95S VSB 1/4  
*WHARTON FOG 67 67 100 CALM 29.93S VSB 1/4  
*COLUMBUS FOG 71 71 100 CALM 29.93S VSB 1/4  
*EAGLE LAKE FOG 70 69 98 CALM 29.92S VSB<1/4  

 
 
TXZ214>216-236>238-231200-  
THE UPPER TEXAS COAST  
 
CITY SKY/WX TMP DP RH WIND PRES REMARKS
 
*ORANGE FOG 73 72 96 CALM 29.96S VSB 1/4  
PORT ARTHUR CLEAR 69 69 100 CALM 29.93S FOG  
GALVESTON PTCLDY 78 73 84 S7 29.93S  
ANGLETON FOG 69 67 93 CALM 29.92R VSB 1  
*BAY CITY MOCLDY 69 69 100 CALM 29.92S FOG  
PALACIOS MOCLDY 74 73 97 E6 29.91S  

 
 
TXZ229>234-239>247-231200-  
TEXAS COASTAL BEND AND RIO GRANDE PLAINS  
 
CITY SKY/WX TMP DP RH WIND PRES REMARKS
 
VICTORIA FOG 70 69 97 E5 29.92R VSB 1  
*BEEVILLE FOG 71 71 100 CALM 29.90S VSB 1/2  
ROCKPORT MOCLDY 76 74 93 CALM 29.89F  
*PORT ARANSAS MOCLDY 79 75 87 S5 29.92R  
*PORT LAVACA MOCLDY 75 73 91 S3 29.91R  
*INGLESIDE MOCLDY 75 74 95 CALM 29.89F  
CORPUS CHRISTI CLOUDY 74 71 91 NW3 29.90R  
CORPUS NAS CLOUDY 77 70 79 SW7 29.90R  
*ROBSTOWN MOCLDY 75 73 93 E5 29.90F  
ALICE MOCLDY 70 69 97 SE5 29.89S  
KINGSVILLE NAS MOCLDY 72 69 90 SE6 29.89S  
COTULLA FOG 70 67 90 SE3 29.89F VSB 1/4  
LAREDO CLEAR 68 67 96 SE6 29.89S  

 
 
TXZ248>255-231200-  
DEEP SOUTH TEXAS  
 
CITY SKY/WX TMP DP RH WIND PRES REMARKS
 
BROWNSVILLE MOCLDY 71 68 90 N6 29.88S  
PORT ISABEL MOCLDY 71 65 81 NE6 29.88F  
HARLINGEN PTCLDY 70 69 97 CALM 29.88F  
*HEBBRONVILLE CLEAR 68 67 96 CALM 29.91F  
MCALLEN CLEAR 70 69 97 CALM 29.90S  
*WESLACO CLOUDY 70 69 96 CALM 29.89S  
FALFURRIAS MOCLDY 68 68 99 S3 29.89S  
EDINBURG MOCLDY 71 70 99 CALM 29.90S FOG  
*ZAPATA MOCLDY 68 68 99 CALM 29.90F  

 
 
TXZ213>215-236>238-242>244-246-247-251-254-255-231200-  
CMAN STATIONS  
 
STATION/POSITION TIME TEMP WIND PRES WAVE
 
AIR SEA DIR/SP/G HT/PER  
(UTC) (F) (DEG/KT/KT) (MB) (FT/S)  
SEA RIM ST PARK 1000 77 150/ 4/ 6 1013.7  
NORTH JETTY/GLS 1030 79 78 160/ 6/ 7 1012.2  
EAGLE POINT 1030 77 78 150/ 4/ 5 1012.8  
MORGANS POINT 1030 74 78 120/ 1/ 2 1013.4  
PORT O'CONNOR 1030 78 83 80/ 9/ 11 1012.0  
PORT ARANSAS 1000 80 160/ 11/ 12 N/A  
BAFFIN BAY 1030 75 80 60/ 9/ 11 1012.3  
PORT ISABEL 1030 75 81 180/ 3/ 8 1012.9  

 
 
 
CLICK HERE TO GO TO PREVIOUS BULLETINS.

The Nexlab TX Page Main Text Page